Arlington, WA
on Saturday, November 3, 2012

Saturday
Previous Day Next Day
Daily Summary
 ActualAverageRecord
Temperature
Mean Temperature °F °F  
Max Temperature 59°F 55°F 71°F (2010)
Min Temperature 51°F 35°F 21°F (2002)
Degree Days
Heating Degree Days 10    
Growing Degree Days5 (Base °F )  
Moisture
Dew Point 51°F   
Average Humidity 85    
Maximum Humidity 94    
Minimum Humidity 77    
Precipitation
Precipitation 0.00 in in in ()
Wind
Wind Speed 7 mph   
Max Wind Speed 18 mph   
Max Gust Speed 26 mph   
Visibility 10 miles   
Events     
Averages and records for this station are not official NWS values.
Key: T is trace of precipitation, MM is missing value
Source: NWS Daily Summary
Seasonal Weather Averages
Time(PDT)TemperatureDew PointHumidity Pressure Visibility Wind DirectionWind SpeedGust SpeedPrecipitationEvents Conditions
12:15 AM 53.6°F 50.0°F 88% 29.98 in 10.0 miles Calm Calm - N/A   Overcast
12:35 AM 53.6°F 48.2°F 82% 29.98 in 10.0 miles Calm Calm - N/A   Overcast
1:15 AM 53.6°F 48.2°F 82% 29.98 in 10.0 miles Calm Calm - N/A   Overcast
1:35 AM 53.6°F 48.2°F 82% 29.97 in 10.0 miles SSW 3.5 mph - N/A   Overcast
1:55 AM 53.6°F 48.2°F 82% 29.97 in 10.0 miles South 3.5 mph - N/A   Overcast
2:15 AM 51.8°F 48.2°F 88% 29.97 in 10.0 miles SSE 3.5 mph - N/A   Overcast
2:35 AM 51.8°F 48.2°F 88% 29.98 in 10.0 miles Calm Calm - N/A   Overcast
2:55 AM 51.8°F 48.2°F 88% 29.98 in 10.0 miles South 4.6 mph - N/A   Overcast
3:15 AM 51.8°F 48.2°F 88% 29.98 in 10.0 miles SSE 4.6 mph - N/A   Overcast
3:35 AM 51.8°F 48.2°F 88% 29.99 in 10.0 miles Calm Calm - N/A   Overcast
3:55 AM 51.8°F 48.2°F 88% 29.99 in 10.0 miles ESE 3.5 mph - N/A   Overcast
4:15 AM 53.6°F 48.2°F 82% 29.99 in 10.0 miles SE 4.6 mph - N/A   Overcast
4:35 AM 53.6°F 48.2°F 82% 30.00 in 10.0 miles South 3.5 mph - N/A   Overcast
4:55 AM 53.6°F 48.2°F 82% 29.99 in 10.0 miles South 4.6 mph - N/A   Overcast
5:15 AM 53.6°F 48.2°F 82% 29.99 in 10.0 miles ESE 10.4 mph - N/A   Overcast
5:35 AM 53.6°F 48.2°F 82% 30.00 in 10.0 miles SE 17.3 mph - N/A   Overcast
5:55 AM 53.6°F 48.2°F 82% 30.00 in 10.0 miles SE 13.8 mph - N/A   Overcast
6:15 AM 53.6°F 48.2°F 82% 30.00 in 10.0 miles SE 13.8 mph 19.6 mph N/A   Overcast
6:35 AM 53.6°F 48.2°F 82% 30.00 in 10.0 miles SE 10.4 mph - N/A   Overcast
6:55 AM 53.6°F 48.2°F 82% 30.00 in 10.0 miles South 6.9 mph - N/A   Overcast
7:15 AM 53.6°F 48.2°F 82% 30.01 in 10.0 miles Calm Calm - N/A   Overcast
7:35 AM 53.6°F 48.2°F 82% 30.01 in 10.0 miles SSW 4.6 mph - N/A   Overcast
7:55 AM 53.6°F 48.2°F 82% 30.01 in 10.0 miles SE 5.8 mph - N/A   Overcast
8:15 AM 53.6°F 48.2°F 82% 30.02 in 10.0 miles Calm Calm - N/A   Overcast
8:35 AM 55.4°F 50.0°F 82% 30.02 in 10.0 miles SSE 6.9 mph - N/A   Overcast
8:55 AM 55.4°F 50.0°F 82% 30.02 in 10.0 miles SSE 9.2 mph - N/A   Overcast
9:15 AM 55.4°F 50.0°F 82% 30.03 in 10.0 miles SE 10.4 mph 16.1 mph N/A   Overcast
9:35 AM 55.4°F 50.0°F 82% 30.02 in 10.0 miles SE 12.7 mph - N/A   Overcast
9:55 AM 55.4°F 51.8°F 88% 30.02 in 10.0 miles SE 11.5 mph - N/A   Overcast
10:15 AM 55.4°F 51.8°F 88% 30.02 in 10.0 miles SE 13.8 mph 19.6 mph N/A   Overcast
10:35 AM 57.2°F 51.8°F 82% 30.02 in 10.0 miles SSE 16.1 mph - N/A   Overcast
10:55 AM 57.2°F 51.8°F 82% 30.02 in 10.0 miles SSE 15.0 mph 19.6 mph N/A   Overcast
11:15 AM 57.2°F 51.8°F 82% 30.03 in 10.0 miles SSE 17.3 mph 23.0 mph N/A   Overcast
11:35 AM 57.2°F 51.8°F 82% 30.03 in 10.0 miles SSE 12.7 mph - N/A   Overcast
11:55 AM 57.2°F 51.8°F 82% 30.03 in 10.0 miles SSE 12.7 mph 20.7 mph N/A   Overcast
12:15 PM 57.2°F 51.8°F 82% 30.03 in 10.0 miles SSE 16.1 mph 19.6 mph N/A   Overcast
12:35 PM 57.2°F 51.8°F 82% 30.03 in 10.0 miles South 15.0 mph - N/A   Overcast
12:55 PM 57.2°F 51.8°F 82% 30.04 in 10.0 miles South 13.8 mph 19.6 mph N/A   Overcast
1:15 PM 57.2°F 51.8°F 82% 30.04 in 10.0 miles South 18.4 mph 21.9 mph N/A   Overcast
1:35 PM 57.2°F 51.8°F 82% 30.03 in 10.0 miles South 16.1 mph - N/A   Overcast
1:55 PM 57.2°F 51.8°F 82% 30.03 in 10.0 miles SSE 17.3 mph - N/A   Overcast
2:15 PM 57.2°F 51.8°F 82% 30.03 in 10.0 miles SSE 17.3 mph 21.9 mph N/A   Overcast
2:35 PM 57.2°F 51.8°F 82% 30.03 in 10.0 miles SSE 18.4 mph 21.9 mph N/A   Overcast
2:55 PM 57.2°F 51.8°F 82% 30.03 in 10.0 miles SSE 18.4 mph 23.0 mph N/A   Overcast
3:15 PM 57.2°F 51.8°F 82% 30.03 in 10.0 miles SSE 16.1 mph 26.5 mph N/A   Overcast
3:35 PM 57.2°F 51.8°F 82% 30.04 in 10.0 miles SSE 15.0 mph - N/A   Overcast
3:55 PM 57.2°F 51.8°F 82% 30.05 in 10.0 miles SSE 15.0 mph - N/A   Overcast
4:15 PM 57.2°F 51.8°F 82% 30.05 in 10.0 miles SSE 12.7 mph - N/A   Overcast
4:35 PM 59.0°F 51.8°F 77% 30.06 in 10.0 miles South 15.0 mph 19.6 mph N/A   Overcast
4:55 PM 59.0°F 51.8°F 77% 30.07 in 10.0 miles South 11.5 mph 17.3 mph N/A   Overcast
5:15 PM 59.0°F 51.8°F 77% 30.08 in 10.0 miles South 15.0 mph 19.6 mph N/A   Overcast
5:35 PM 59.0°F 51.8°F 77% 30.08 in 10.0 miles SSE 13.8 mph - N/A   Overcast
5:55 PM 57.2°F 51.8°F 82% 30.09 in 10.0 miles South 15.0 mph 20.7 mph N/A   Overcast
6:15 PM 57.2°F 51.8°F 82% 30.11 in 10.0 miles South 11.5 mph 18.4 mph N/A   Overcast
6:35 PM 57.2°F 51.8°F 82% 30.12 in 10.0 miles South 8.1 mph - N/A   Overcast
6:55 PM 57.2°F 51.8°F 82% 30.12 in 10.0 miles South 10.4 mph - N/A   Overcast
7:15 PM 55.4°F 53.6°F 94% 30.13 in 10.0 miles South 10.4 mph - N/A   Overcast
7:35 PM 55.4°F 53.6°F 94% 30.13 in 10.0 miles SSE 9.2 mph - N/A   Overcast
7:55 PM 55.4°F 53.6°F 94% 30.13 in 10.0 miles SSE 5.8 mph - N/A   Overcast
8:15 PM 55.4°F 53.6°F 94% 30.13 in 10.0 miles SSE 5.8 mph - N/A   Overcast
8:35 PM 55.4°F 53.6°F 94% 30.14 in 10.0 miles SSE 8.1 mph - N/A   Overcast
8:55 PM 55.4°F 53.6°F 94% 30.14 in 10.0 miles SSE 10.4 mph - N/A   Overcast
9:15 PM 55.4°F 53.6°F 94% 30.15 in 10.0 miles SSE 8.1 mph - N/A   Overcast
9:35 PM 55.4°F 53.6°F 94% 30.16 in 10.0 miles SSE 4.6 mph - N/A   Overcast
9:55 PM 55.4°F 53.6°F 94% 30.17 in 10.0 miles SSE 4.6 mph - N/A   Overcast
10:15 PM 55.4°F 53.6°F 94% 30.17 in 10.0 miles SE 4.6 mph - N/A   Overcast
10:35 PM 55.4°F 53.6°F 94% 30.17 in 10.0 miles SE 4.6 mph - N/A   Overcast
10:55 PM 55.4°F 53.6°F 94% 30.18 in 10.0 miles SE 5.8 mph - N/A   Overcast
11:15 PM 55.4°F 51.8°F 88% 30.18 in 10.0 miles SE 6.9 mph - N/A   Overcast
11:35 PM 55.4°F 51.8°F 88% 30.18 in 10.0 miles SE 6.9 mph - N/A   Overcast
Moon Phase
Nov. 03 Nov. 06 Nov. 13 Nov. 20 Nov. 28
Sunrise:07:57 AM (PDT) Moon Rise:09:24 PM (PDT)11/3
Sunset:05:45 PM (PDT) Moon Set:12:13 PM (PDT)11/3

Copyright © 2014 The Weather Underground, Inc.